GEFSSE_con_cape1000_132.txt.gz
Probability
3 29 100 100 100 94 90 90 87 81 84 77 74 65 61 45 39 23 23 23 26 29 29 26 29 19 10 3 0 3 3 3 3 0 0 0 0 0 0 0 0 0 0
3 39 90 97 100 94 90 90 81 77 74 74 71 71 52 48 35 29 26 26 29 32 32 23 19 16 10 6 3 3 0 0 0 0 0 0 0 0 0 0 0 0 0
16 45 87 97 97 90 87 81 74 74 74 71 68 58 42 35 32 26 26 32 29 29 23 23 16 13 6 3 3 0 0 0 0 0 0 0 0 0 0 0 0 0 0
19 48 77 90 97 90 87 74 71 68 68 71 68 52 39 32 35 29 32 32 29 26 19 16 16 6 6 3 0 0 0 0 0 0 0 0 0 0 0 0 0 0 0
23 42 68 84 87 81 87 71 68 68 68 71 61 61 39 42 39 35 35 39 32 23 13 13 10 6 6 3 0 0 0 0 0 0 0 0 0 0 0 0 0 0 0
19 35 58 77 74 74 74 71 68 65 65 71 65 61 52 45 35 39 39 39 26 13 10 10 6 6 3 0 0 0 0 0 0 0 0 0 0 0 0 0 0 0 0
19 26 55 71 71 68 68 74 65 61 68 71 71 65 55 48 42 42 39 32 19 13 10 6 3 0 0 0 0 0 0 0 0 0 0 0 0 0 0 0 0 0 0
13 23 42 71 71 68 61 71 77 68 74 71 71 65 61 52 48 45 26 19 13 10 10 3 3 0 0 0 0 0 0 0 0 0 0 0 0 0 0 0 0 0 0
13 19 32 42 48 55 61 68 71 71 68 71 71 68 55 52 42 32 19 16 10 13 10 3 0 0 0 0 0 0 0 0 0 0 0 0 0 0 0 0 0 0 0
10 13 13 19 23 35 35 42 45 48 48 42 55 35 16 10 10 23 3 3 6 6 3 3 0 0 0 0 0 0 0 0 0 0 0 0 0 0 0 0 0 0 0
6 10 6 10 10 13 10 26 26 23 19 23 16 3 0 0 0 0 0 0 0 0 0 0 0 0 0 0 0 0 0 0 0 0 0 0 0 0 0 0 0 0 0
6 10 6 6 3 3 10 10 6 3 3 6 3 0 0 0 0 0 0 0 0 0 0 0 0 0 0 0 0 0 0 0 0 0 0 0 0 0 0 0 0 0 0
0 6 3 0 3 0 0 3 0 0 0 0 0 0 0 0 0 0 0 0 0 0 0 0 0 0 0 0 0 0 0 0 0 0 0 0 0 0 0 0 3 0 0
0 3 0 0 3 3 0 0 0 0 0 0 0 0 0 0 0 0 0 0 0 0 0 0 0 0 0 0 0 0 0 0 0 0 0 0 0 0 0 0 0 0 0
0 0 0 0 0 0 0 0 0 0 0 0 0 0 0 0 0 0 0 0 0 0 0 0 0 0 0 0 0 0 0 0 0 0 0 0 0 0 0 0 0 0 0
0 0 0 0 0 0 0 0 0 0 0 0 0 0 0 0 0 0 0 0 0 0 0 0 0 0 0 0 0 0 0 0 0 0 0 0 0 0 0 0 0 0 0
0 0 0 0 0 0 0 0 0 0 0 0 0 0 0 0 0 0 0 0 0 0 0 0 0 0 0 0 0 0 0 0 0 0 0 0 0 0 0 0 0 0 0
0 0 0 0 0 0 0 0 0 0 0 0 0 0 0 0 0 0 0 0 0 0 0 0 0 0 0 0 0 0 0 0 0 0 0 0 0 0 0 0 0 0 0
0 0 0 0 0 0 0 0 0 0 0 0 0 0 0 0 0 0 0 0 0 0 0 0 0 0 0 0 0 0 0 0 0 0 0 0 0 0 0 0 0 0 0
0 0 0 0 0 0 0 0 0 0 0 0 0 0 0 0 0 0 0 0 0 0 0 0 0 0 0 0 0 0 0 0 0 0 0 0 0 0 0 0 0 0 0
0 0 0 0 0 0 0 0 0 0 0 0 0 0 0 0 0 0 0 0 0 0 0 0 0 0 0 0 0 0 0 0 0 0 0 0 0 0 0 0 0 0 0
0 0 0 0 0 0 0 0 0 0 0 0 0 0 0 0 0 0 0 0 0 0 0 0 0 0 0 0 0 0 0 0 0 0 0 0 0 0 0 0 0 0 0
0 0 0 0 0 0 0 0 0 0 0 0 0 0 0 0 0 0 0 0 0 0 0 0 0 0 0 0 0 0 0 0 0 0 0 0 0 0 0 0 0 0 0
0 0 0 0 0 0 0 0 0 0 0 0 0 0 0 0 0 0 0 0 0 0 0 0 0 0 0 0 0 0 0 0 0 0 0 0 0 0 0 0 0 0 0
0 0 0 0 0 0 0 0 0 0 0 0 0 0 0 0 0 0 0 0 0 0 0 0 0 0 0 0 0 0 0 0 0 0 0 0 0 0 0 0 0 0 0
0 0 0 0 0 0 0 0 0 0 0 0 0 0 0 0 0 0 0 0 0 0 0 0 0 0 0 0 0 0 0 0 0 0 0 0 0 0 0 0 0 0 0

GEFSSE_con_cape1000_138.txt.gz
Probability
26 52 77 94 90 90 90 94 90 90 87 81 68 65 55 48 42 32 39 26 19 19 10 10 13 6 3 3 6 10 3 3 0 0 0 3 3 0 0 0 3 0 0
23 45 71 81 90 90 90 90 90 90 90 84 71 65 58 55 45 42 35 19 23 23 29 23 16 13 16 10 10 3 0 0 0 0 0 0 0 0 0 0 3 0 0
19 52 74 81 90 87 90 90 90 90 90 87 74 71 68 61 55 35 39 32 29 39 35 26 26 23 13 13 3 0 0 0 0 0 0 0 0 0 0 0 0 0 0
19 42 58 74 81 90 90 90 87 90 87 87 77 77 77 74 55 52 39 39 35 39 35 42 26 19 13 10 0 0 0 0 0 0 0 0 0 0 0 0 0 0 0
35 42 58 68 74 81 87 87 87 84 87 84 77 77 71 68 55 48 52 48 55 55 48 39 23 16 10 6 0 0 0 0 0 0 0 0 0 0 0 0 0 0 0
35 42 58 61 71 74 77 84 81 81 81 81 77 74 68 58 58 48 61 61 61 52 39 29 16 10 6 3 0 0 0 0 0 0 0 0 0 0 0 0 0 0 0
29 35 48 58 61 74 74 74 74 74 74 74 68 65 61 58 58 55 61 58 48 42 26 16 6 10 6 0 0 0 0 0 0 0 0 0 0 0 0 0 0 0 0
23 32 45 52 55 65 71 68 71 84 77 68 58 65 68 71 71 58 58 42 42 26 26 16 6 10 3 0 0 0 0 0 0 0 0 0 0 0 0 0 0 0 0
16 26 29 39 42 42 52 52 58 68 74 81 74 71 65 65 68 58 48 35 32 23 23 16 10 6 3 0 0 0 0 0 0 0 0 0 0 0 0 0 0 0 0
16 16 23 26 29 39 35 26 29 42 48 58 52 39 29 19 29 26 16 19 19 16 13 10 10 6 3 0 0 0 0 0 0 0 0 0 0 0 0 0 0 0 0
10 10 13 13 16 16 16 6 13 6 19 26 29 6 3 26 29 16 0 3 0 6 6 3 6 3 0 0 0 0 0 0 0 0 0 0 0 0 0 0 0 0 3
3 3 6 6 10 13 10 13 16 23 23 19 26 16 10 13 16 3 0 0 0 0 0 3 0 0 0 0 0 0 0 0 0 0 0 0 0 0 0 0 0 3 3
0 3 3 6 6 6 16 16 26 26 26 16 13 23 13 16 6 3 10 0 0 0 0 0 0 0 0 0 0 0 0 0 0 0 0 0 0 0 0 0 0 0 3
0 0 3 3 3 3 6 10 10 13 16 16 10 16 13 26 19 6 13 13 6 0 0 0 3 0 0 0 0 0 0 0 0 0 0 0 0 0 0 0 0 0 3
0 0 0 3 0 3 6 6 6 6 6 13 13 10 13 10 10 3 6 13 6 3 0 3 0 0 0 0 0 0 0 0 0 0 0 0 0 0 0 0 0 3 3
0 0 0 0 0 0 0 3 6 6 6 3 6 0 0 6 6 6 3 3 3 0 0 0 0 0 0 0 0 0 0 0 0 0 0 0 0 0 0 0 0 0 0
0 0 0 0 0 0 0 0 0 3 3 3 0 0 0 0 0 3 3 3 3 0 0 0 0 0 0 0 0 0 0 0 0 0 0 0 0 0 0 0 0 0 0
0 0 0 0 0 0 0 0 0 0 0 0 0 0 0 0 0 0 3 3 0 0 0 0 0 0 0 0 0 0 0 0 0 0 0 0 0 0 0 0 0 0 0
0 0 0 0 0 0 0 0 0 0 0 0 0 0 0 0 0 0 0 0 0 0 0 0 0 0 0 0 0 0 0 0 0 0 0 0 0 0 0 0 0 0 0
0 0 0 0 0 0 0 0 0 0 0 0 0 0 0 0 0 0 0 0 0 0 0 0 0 0 0 0 0 0 0 0 0 0 0 0 0 0 0 0 0 0 0
0 0 0 0 0 0 0 0 0 0 0 3 3 0 0 0 0 0 0 0 0 0 0 0 0 0 0 0 0 0 0 0 0 0 0 0 0 0 0 0 0 0 0
0 0 0 0 0 0 0 0 0 0 0 0 3 0 0 0 0 0 0 0 0 0 0 0 0 0 0 0 0 0 0 0 0 0 0 0 0 0 0 0 0 0 0
0 0 0 0 0 0 0 0 0 0 0 0 0 0 0 0 0 0 0 0 0 0 0 0 0 0 0 0 0 0 0 0 0 0 0 0 0 0 0 0 0 0 0
0 0 0 0 0 0 0 0 0 0 0 0 0 0 0 0 0 0 0 0 0 0 0 0 0 0 0 0 0 0 0 0 0 0 0 0 0 0 0 0 0 0 0
0 0 0 0 0 0 0 0 0 0 0 0 0 0 0 0 0 0 0 0 0 0 0 0 0 0 0 0 0 0 0 0 0 0 0 0 0 0 0 0 0 0 0
0 0 0 0 0 0 0 0 0 0 0 0 0 0 0 0 0 0 0 0 0 0 0 0 0 0 0 0 0 0 0 0 0 0 0 0 0 0 0 0 0 0 0

GEFSSE_con_cape1000_144.txt.gz
Probability
39 55 74 77 90 94 97 90 90 81 77 74 71 61 58 58 61 58 39 29 23 29 13 6 3 6 13 26 23 19 13 13 6 3 3 3 3 0 0 0 0 0 0
35 52 71 77 77 87 94 94 90 84 71 74 71 68 65 58 58 55 39 29 16 19 16 10 10 13 19 23 23 10 13 0 0 0 0 0 0 0 0 3 0 0 0
32 52 65 77 77 77 84 90 90 84 77 77 71 74 65 58 58 55 42 32 26 26 29 16 16 13 19 16 16 6 0 0 0 0 0 0 0 0 0 0 0 0 0
26 42 55 61 77 77 77 84 87 84 81 77 74 74 71 71 61 55 55 39 32 45 35 32 39 32 23 10 6 3 0 0 0 0 0 0 0 0 0 0 0 0 0
19 26 52 61 61 74 77 81 81 87 87 81 74 74 74 77 68 58 55 55 52 52 48 39 42 29 16 13 3 0 0 0 0 0 0 0 0 0 0 0 0 0 0
19 29 42 55 58 61 74 74 81 81 81 81 77 77 74 77 68 61 61 55 58 52 45 42 39 26 16 10 3 0 0 0 0 0 0 0 0 0 0 0 0 0 0
19 29 42 48 55 55 58 74 68 74 74 77 77 74 71 77 71 61 65 61 52 45 48 42 29 19 10 3 0 0 0 0 0 0 0 0 0 0 0 0 0 0 0
19 19 35 48 48 52 55 61 68 68 81 71 74 77 77 74 74 61 58 55 48 52 52 42 23 16 6 3 0 0 0 0 0 0 0 0 0 0 0 0 0 0 0
10 13 19 29 35 52 48 52 61 61 71 81 84 81 71 74 65 61 55 52 45 42 39 35 16 16 6 0 0 0 0 0 0 0 0 0 0 0 0 0 0 0 0
3 6 6 19 19 32 35 42 45 52 52 58 61 39 26 23 26 29 29 32 42 39 29 23 13 6 3 0 0 0 0 0 0 0 0 0 0 0 0 0 0 0 0
0 0 10 6 6 3 16 13 6 10 16 19 16 3 3 10 16 13 3 0 13 13 13 10 6 3 0 0 0 0 0 0 0 0 0 0 0 0 0 0 0 3 3
0 0 0 6 3 0 3 10 3 3 3 0 3 0 0 0 3 6 0 0 0 3 6 3 0 0 0 0 0 0 0 0 0 0 0 0 0 0 0 0 0 3 3
0 0 0 0 0 0 0 0 3 3 3 3 3 3 3 0 0 0 0 0 0 0 0 0 0 0 0 0 0 0 0 0 0 0 0 0 0 0 0 0 3 3 3
0 0 0 0 0 0 0 0 0 3 6 3 0 3 3 0 0 0 0 0 0 0 0 0 0 0 0 0 0 0 0 0 0 0 0 0 0 0 3 3 3 3 3
0 0 0 0 0 0 0 0 0 0 0 0 6 3 3 0 0 0 0 0 0 0 0 0 0 0 0 0 0 0 0 0 0 0 0 0 0 0 3 3 3 3 3
0 0 0 0 0 0 0 0 0 0 0 0 0 0 0 0 0 0 0 0 0 0 0 0 0 0 0 0 0 0 0 0 0 0 0 0 0 0 0 0 0 0 3
0 0 0 0 0 0 0 0 0 0 0 0 0 0 0 0 0 0 0 0 0 0 0 0 0 0 0 0 0 0 0 0 0 0 0 0 0 0 0 0 3 3 3
0 0 0 0 0 0 0 0 0 0 0 0 0 0 0 0 0 0 0 0 0 0 0 0 0 0 0 0 0 0 0 0 0 0 0 0 0 0 0 0 0 0 3
0 0 0 0 0 0 0 0 0 0 0 0 0 0 0 0 0 0 0 0 0 0 0 0 0 0 0 0 0 0 0 0 0 0 0 0 0 0 0 0 0 0 0
0 0 0 0 0 0 0 0 0 0 0 0 0 0 0 0 0 0 0 0 0 0 0 0 0 0 0 0 0 0 0 0 0 0 0 0 0 0 0 0 0 0 0
0 0 0 0 0 0 0 0 0 0 0 0 0 0 0 0 0 0 0 0 0 0 0 0 0 0 0 0 0 0 0 0 0 0 0 0 0 0 0 0 0 0 0
0 0 0 0 0 0 0 0 0 0 0 0 0 0 0 0 0 0 0 0 0 0 0 0 0 0 0 0 0 0 0 0 0 0 0 0 0 0 0 0 0 0 0
0 0 0 0 0 0 0 0 0 0 0 0 0 0 0 0 0 0 0 0 0 0 0 0 0 0 0 0 0 0 0 0 0 0 0 0 0 0 0 0 0 0 0
0 0 0 0 0 0 0 0 0 0 0 0 0 0 0 0 0 0 0 0 0 0 0 0 0 0 0 0 0 0 0 0 0 0 0 0 0 0 0 0 0 0 0
0 0 0 0 0 0 0 0 0 0 0 0 0 0 0 0 0 0 0 0 0 0 0 0 0 0 0 0 0 0 0 0 0 0 0 0 0 0 0 0 0 0 0
0 0 0 0 0 0 0 0 0 0 0 0 0 0 0 0 0 0 0 0 0 0 0 0 0 0 0 0 0 0 0 0 0 0 0 0 0 0 0 0 0 0 0

GEFSSE_con_cape1000_150.txt.gz
Probability
23 55 68 90 87 87 90 90 90 84 77 68 65 68 71 61 55 48 48 42 39 29 16 13 19 23 32 32 26 16 13 10 6 3 3 0 0 0 0 0 0 0 0
29 45 68 74 84 87 90 84 84 84 77 74 68 65 65 65 55 55 48 45 42 32 16 16 19 23 26 19 16 16 10 0 0 0 0 0 3 0 0 0 3 0 0
32 42 55 68 74 81 87 87 84 77 81 74 65 65 61 61 61 58 52 45 42 29 19 19 29 29 16 16 10 13 3 0 0 0 0 0 0 0 0 0 0 0 0
32 42 48 61 71 74 77 84 81 77 74 74 81 68 58 58 65 61 52 52 48 35 29 29 32 35 16 13 10 3 0 0 0 0 0 0 0 0 0 0 0 3 0
29 35 42 52 58 68 74 77 74 81 71 71 71 71 71 65 65 65 55 58 52 55 52 45 32 26 16 13 6 3 0 0 0 0 0 0 0 0 0 0 0 0 0
26 29 35 45 52 58 65 68 74 74 74 71 71 71 68 65 65 58 61 58 65 55 58 48 35 23 13 10 6 3 0 0 0 0 0 0 0 0 0 0 0 0 0
13 23 29 42 48 52 61 65 65 61 74 74 68 71 65 65 61 65 58 58 61 55 48 48 39 16 13 10 6 6 6 0 0 0 0 0 0 0 0 0 0 0 0
10 16 23 29 35 42 45 58 58 58 65 74 81 77 71 74 68 61 58 58 55 55 48 42 35 19 6 3 3 6 0 0 0 0 0 0 0 0 0 0 0 0 0
10 10 16 23 26 29 39 45 52 52 48 58 74 81 77 68 68 58 55 55 58 48 48 42 39 26 10 3 3 6 0 0 0 0 0 0 0 0 0 0 0 0 0
3 6 6 10 16 13 23 26 32 35 32 39 48 48 42 42 45 55 42 55 55 48 39 42 29 19 13 0 0 0 0 0 0 0 0 0 0 0 0 0 0 0 0
0 0 6 6 6 6 0 13 10 6 16 19 6 6 10 10 19 23 6 10 23 35 35 32 26 16 0 0 0 0 0 0 0 0 0 0 0 0 0 0 0 0 0
0 0 0 0 0 0 0 0 0 0 0 0 0 0 0 0 0 13 3 0 3 10 6 10 10 3 0 0 0 0 0 0 0 0 0 0 0 0 0 3 3 0 0
0 0 0 0 0 0 0 0 0 0 0 0 0 0 0 0 0 0 0 0 0 0 0 0 0 0 0 0 0 0 0 0 0 0 0 0 0 0 0 0 3 0 0
0 0 0 0 0 0 0 0 0 0 0 0 0 0 0 0 0 0 0 0 0 0 0 0 0 0 0 0 0 0 0 0 0 0 0 0 0 0 3 0 0 0 0
0 0 0 0 0 0 0 0 0 0 0 0 0 0 0 0 0 0 0 0 0 0 0 0 0 0 0 0 0 0 0 0 0 0 0 0 0 0 3 3 3 3 0
0 0 0 0 0 0 0 0 0 0 0 0 0 0 0 0 0 0 0 0 0 0 0 0 0 0 0 0 0 0 0 0 0 0 0 0 0 0 0 3 3 3 6
0 0 0 0 0 0 0 0 0 0 0 0 0 0 0 0 0 0 0 0 0 0 0 0 0 0 0 0 0 0 0 0 0 0 0 0 0 0 0 0 3 3 6
0 0 0 0 0 0 0 0 0 0 0 0 0 0 0 0 0 0 0 0 0 0 0 0 0 0 0 0 0 0 0 0 0 0 0 0 0 0 0 0 0 3 6
0 0 0 0 0 0 0 0 0 0 0 0 0 0 0 0 0 0 0 0 0 0 0 0 0 0 0 0 0 0 0 0 0 0 0 0 0 0 0 0 0 0 3
0 0 0 0 0 0 0 0 0 0 0 0 0 0 0 0 0 0 0 0 0 0 0 0 0 0 0 0 0 0 0 0 0 0 0 0 0 0 0 0 0 0 0
0 0 0 0 0 0 0 0 0 0 0 0 0 0 0 0 0 0 0 0 0 0 0 0 0 0 0 0 0 0 0 0 0 0 0 0 0 0 0 0 0 0 0
0 0 0 0 0 0 0 0 0 0 0 0 0 0 0 0 0 0 0 0 0 0 0 0 0 0 0 0 0 0 0 0 0 0 0 0 0 0 0 0 0 0 0
0 0 0 0 0 0 0 0 0 0 0 0 0 0 0 0 0 0 0 0 0 0 0 0 0 0 0 0 0 0 0 0 0 0 0 0 0 0 0 0 0 0 0
0 0 0 0 0 0 0 0 0 0 0 0 0 0 0 0 0 0 0 0 0 0 0 0 0 0 0 0 0 0 0 0 0 0 0 0 0 0 0 0 0 0 0
0 0 0 0 0 0 0 0 0 0 0 0 0 0 0 0 0 0 0 0 0 0 0 0 0 0 0 0 0 0 0 0 0 0 0 0 0 0 0 0 0 0 0
0 0 0 0 0 0 0 0 0 0 0 0 0 0 0 0 0 0 0 0 0 0 0 0 0 0 0 0 0 0 0 0 0 0 0 0 0 0 0 0 0 0 0